Dewpoint
63 55 53 52 46 42 39 42 47 45 39 45 41 48 52 56 55 54 63 60 60 63 68 68 72 71 71 73 73 73 72 73 74 74 74 74 74 74 73 73 73 71 71 70 70 70 70 70 70
48 50 49 42 40 37 37 44 47 48 48 51 52 52 54 59 62 65 61 64 62 65 67 67 73 73 72 72 73 73 73 74 74 74 74 74 73 73 73 72 71 71 70 70 69 70 70 70 70
49 45 40 37 39 35 36 44 49 50 50 50 52 55 57 61 64 62 64 63 62 65 67 69 72 72 72 73 73 73 74 74 74 74 73 73 73 72 72 71 71 70 70 70 70 70 70 70 70
35 34 35 35 33 34 37 43 48 48 50 52 53 57 62 65 63 65 65 60 61 61 62 70 72 72 72 72 73 73 73 73 73 73 73 73 72 71 71 71 71 71 71 71 70 71 71 70 70
28 28 29 32 32 39 43 49 49 47 50 50 52 55 62 67 65 64 61 58 61 62 62 66 70 71 71 72 72 72 73 73 73 73 72 72 72 71 72 71 71 71 71 71 71 71 71 71 71
22 26 28 29 30 44 48 49 50 49 53 53 53 58 63 67 64 61 59 58 61 64 63 66 70 70 70 71 71 72 73 73 73 72 72 72 71 71 72 72 72 72 72 72 72 72 72 73 73
21 24 26 28 29 36 48 50 49 49 51 56 55 56 64 64 62 60 59 60 60 65 65 67 68 69 72 71 71 72 71 71 71 72 72 72 72 72 72 71 71 72 72 73 73 73 74 74 74
17 22 24 25 29 34 50 49 50 48 54 60 59 56 60 62 62 60 60 62 61 64 65 66 67 67 67 68 71 71 71 71 71 71 72 73 72 70 69 70 71 71 71 72 73 74 74 74 75
17 20 22 25 30 35 50 48 51 54 55 58 58 56 61 62 60 58 58 59 62 64 65 65 66 67 68 66 68 70 71 71 71 71 71 70 65 66 65 71 70 71 70 70 70 69 68 70 72
14 17 21 24 25 32 48 48 52 52 55 59 60 62 61 60 58 55 53 53 53 56 59 62 63 65 64 63 66 68 65 65 66 66 69 65 65 66 64 69 70 70 69 70 69 68 69 69 61
12 14 17 21 23 39 42 48 52 52 52 57 61 62 61 59 58 55 53 53 52 53 56 59 63 66 61 60 62 62 62 64 65 67 67 66 62 64 64 65 65 68 66 64 66 65 63 64 63
7 12 14 18 41 41 43 48 51 52 53 57 62 64 62 61 57 56 55 55 54 55 56 57 60 64 63 61 62 66 62 63 62 64 68 68 65 68 68 65 65 66 63 65 64 61 65 64 64
8 8 11 29 45 45 46 50 50 52 57 61 63 63 62 61 59 56 56 56 58 57 58 58 63 66 67 68 67 66 64 62 64 65 67 68 69 69 67 67 65 65 64 63 63 62 63 63 63
7 7 33 42 42 49 49 50 51 52 56 58 60 60 61 60 59 58 57 58 60 59 60 62 65 68 67 66 66 64 64 64 63 63 64 65 66 67 66 66 64 63 62 61 61 61 62 62 63
30 27 41 44 47 48 50 48 49 52 55 57 59 57 57 59 59 58 58 59 59 59 60 61 64 65 65 65 63 62 61 60 61 60 62 62 62 64 65 62 61 60 60 59 59 60 60 60 60
28 28 28 39 48 50 49 42 49 52 54 55 57 56 55 54 57 58 57 58 58 58 60 59 59 62 62 62 61 60 60 58 58 57 57 58 57 60 60 59 57 57 57 55 55 55 55 56 56
28 17 20 37 46 49 49 41 48 51 52 54 56 55 54 55 53 55 55 56 58 59 59 61 61 59 60 61 59 59 60 56 56 55 55 56 54 55 55 53 53 54 51 50 49 50 50 48 45
17 18 23 23 43 48 48 44 48 49 51 53 54 55 54 54 53 54 53 53 57 58 59 61 60 61 61 59 58 56 55 53 52 52 52 53 51 52 52 51 52 49 46 45 47 52 48 46 44
11 17 17 21 28 43 43 46 45 48 50 51 52 53 55 55 54 53 52 53 53 57 59 60 60 62 59 57 56 55 52 50 48 48 50 50 49 49 50 45 47 46 47 49 50 48 48 42 45
10 12 15 18 25 42 35 36 38 48 48 50 51 52 52 53 52 51 52 52 53 55 57 59 60 60 59 57 58 55 50 47 46 46 48 48 49 49 48 48 46 48 44 48 48 49 41 40 44
12 12 13 12 23 39 37 34 37 43 49 49 50 52 52 52 51 51 51 51 51 52 54 56 58 59 58 57 55 52 51 48 44 44 43 46 46 48 49 48 47 46 43 41 45 46 48 36 40
14 12 14 13 14 12 33 21 28 37 46 47 48 49 50 51 52 51 51 50 49 49 51 54 56 57 57 56 55 56 51 48 45 43 44 44 46 45 46 46 46 48 42 44 42 43 43 42 37
17 16 19 19 18 19 14 16 20 21 28 41 45 47 49 50 51 50 48 48 46 47 48 52 54 54 55 55 54 52 49 46 43 43 47 48 46 45 44 46 46 46 41 45 45 45 45 39 36
20 21 22 22 18 15 18 17 17 16 25 27 31 40 46 48 49 49 47 46 45 43 46 48 51 52 52 51 51 50 49 46 43 44 41 39 39 41 44 44 45 46 44 44 42 44 45 44 42
21 23 17 16 13 13 17 16 19 22 22 28 30 37 43 47 47 46 44 42 43 43 44 45 48 50 50 49 49 49 49 49 49 46 41 41 38 38 44 45 45 43 45 44 43 42 43 43 41
25 25 19 19 14 11 16 15 17 29 36 37 37 37 44 45 45 43 42 41 41 42 43 44 47 48 48 48 47 48 48 41 41 44 42 40 39 41 44 43 44 44 42 41 41 36 35 42 39
30 27 26 25 24 19 17 20 32 34 35 36 36 40 44 45 45 43 41 42 42 43 44 45 46 47 47 47 46 46 45 44 43 45 46 42 45 43 44 42 42 42 41 40 40 35 38 38 38
32 31 31 28 27 23 18 20 18 34 35 38 39 41 44 45 43 42 41 43 42 43 44 44 44 44 45 45 45 44 45 45 43 45 44 45 46 45 43 41 40 40 40 40 39 36 39 39 35
26 33 31 32 31 26 24 21 36 36 37 38 39 41 43 44 42 41 41 41 41 41 40 42 42 43 44 44 44 44 44 45 43 41 42 43 45 46 42 39 38 37 39 40 40 39 37 37 39
32 32 31 26 31 30 29 29 39 38 37 39 38 41 42 42 40 39 40 40 39 39 40 41 42 41 42 43 43 43 42 41 42 40 41 43 44 42 41 36 35 34 36 39 38 36 36 36 35
Lifted_Index
2 2 2 1 -1 -2 -2 -2 -2 -1 -0 0 0 -1 -2 -3 -3 -3 -1 -0 -0 -1 -1 -1 -2 -2 -1 -1 -1 -1 -2 -2 -3 -3 -3 -4 -4 -4 -4 -4 -4 -3 -3 -3 -3 -3 -3 -3 -3
3 3 2 1 -1 -2 -2 -2 -2 -1 -1 -0 -1 -2 -3 -3 -3 -3 -2 -1 -1 -1 -1 -1 -2 -2 -1 -1 -1 -2 -2 -3 -3 -3 -3 -4 -4 -4 -4 -4 -4 -3 -3 -3 -3 -3 -3 -3 -3
4 4 3 1 -1 -1 -1 -2 -2 -1 -1 -1 -2 -3 -4 -4 -3 -3 -2 -1 -1 -1 -1 -1 -2 -2 -2 -2 -2 -2 -3 -3 -4 -4 -4 -4 -4 -4 -4 -4 -4 -4 -4 -3 -3 -3 -3 -3 -3
5 4 3 1 0 -0 -1 -1 -2 -2 -1 -2 -2 -3 -4 -4 -4 -3 -2 -1 -1 -1 -1 -1 -1 -1 -1 -2 -2 -3 -3 -4 -4 -4 -4 -3 -3 -3 -4 -4 -4 -4 -4 -4 -4 -4 -3 -3 -3
6 5 3 1 0 0 -1 -2 -2 -2 -2 -2 -2 -3 -4 -4 -3 -2 -1 -0 -0 -0 -0 -1 -1 -1 -1 -1 -2 -2 -3 -4 -4 -4 -4 -3 -3 -4 -4 -4 -4 -4 -4 -4 -4 -4 -4 -4 -4
6 4 2 1 0 -0 -1 -2 -2 -2 -2 -2 -2 -3 -3 -3 -3 -2 -0 -0 -0 -1 -1 -1 -1 -1 -1 -1 -2 -2 -3 -3 -3 -4 -4 -3 -3 -4 -4 -4 -4 -5 -5 -5 -5 -5 -5 -5 -5
6 5 3 1 1 -1 -2 -2 -2 -2 -2 -3 -3 -3 -3 -3 -2 -1 -0 -0 -0 -1 -1 -1 -1 -1 -2 -2 -2 -2 -3 -3 -3 -3 -3 -3 -3 -4 -4 -4 -4 -4 -5 -5 -6 -6 -6 -6 -6
7 5 3 2 1 -1 -2 -2 -2 -2 -3 -3 -3 -3 -3 -2 -1 -0 -0 -0 -0 -1 -1 -1 -1 -2 -2 -2 -2 -2 -3 -3 -3 -3 -3 -3 -3 -3 -3 -3 -3 -4 -5 -5 -6 -5 -5 -5 -5
7 6 3 2 1 -1 -2 -2 -2 -3 -3 -3 -3 -3 -2 -2 -1 -0 0 0 0 -0 -1 -1 -1 -2 -2 -2 -2 -2 -2 -2 -2 -2 -2 -2 -2 -2 -3 -3 -3 -4 -4 -4 -4 -4 -4 -4 -4
7 6 4 2 2 -0 -2 -3 -3 -3 -3 -4 -4 -3 -2 -2 -1 -0 0 1 1 1 0 -1 -1 -2 -2 -2 -2 -2 -2 -2 -2 -2 -2 -2 -2 -2 -3 -3 -4 -4 -4 -4 -4 -4 -3 -3 -4
7 6 4 3 2 -0 -2 -3 -3 -3 -3 -4 -4 -4 -3 -2 -1 -1 -0 1 1 2 1 0 -0 -1 -1 -1 -2 -2 -2 -2 -2 -2 -2 -2 -2 -2 -3 -4 -4 -4 -4 -4 -4 -4 -4 -4 -4
7 6 5 3 1 -1 -2 -3 -3 -3 -4 -4 -5 -4 -4 -3 -2 -1 -0 1 1 1 1 1 -0 -1 -1 -2 -2 -2 -2 -2 -2 -2 -2 -3 -3 -4 -4 -4 -4 -4 -4 -4 -4 -4 -4 -4 -4
7 7 6 3 0 -2 -3 -4 -3 -3 -3 -4 -4 -4 -4 -3 -2 -1 0 1 1 1 0 -0 -1 -2 -2 -2 -2 -2 -2 -1 -1 -2 -2 -3 -4 -4 -4 -4 -4 -3 -3 -3 -3 -3 -3 -3 -3
7 6 5 2 0 -2 -3 -3 -3 -3 -3 -4 -4 -4 -4 -4 -3 -2 -0 0 -0 -0 -1 -2 -2 -3 -3 -3 -3 -2 -2 -1 -2 -2 -2 -3 -3 -3 -3 -3 -3 -3 -3 -3 -2 -2 -3 -3 -3
6 6 4 2 -0 -2 -3 -3 -3 -3 -3 -3 -3 -4 -4 -4 -4 -2 -1 -0 -1 -1 -2 -3 -3 -3 -4 -3 -3 -2 -2 -2 -2 -2 -2 -2 -2 -3 -3 -3 -3 -3 -3 -3 -3 -3 -3 -3 -3
6 5 4 2 -0 -2 -2 -3 -3 -3 -3 -3 -3 -3 -4 -5 -4 -3 -2 -1 -1 -2 -3 -4 -4 -4 -4 -4 -4 -3 -3 -3 -3 -2 -2 -2 -2 -3 -3 -3 -3 -3 -3 -3 -3 -3 -3 -2 -2
5 5 4 2 0 -2 -2 -3 -3 -3 -2 -3 -3 -3 -4 -4 -4 -4 -3 -2 -2 -3 -3 -4 -4 -4 -4 -4 -4 -4 -4 -3 -3 -3 -2 -2 -2 -2 -2 -2 -3 -3 -2 -2 -1 -0 0 1 2
5 5 4 3 1 -1 -2 -3 -2 -2 -2 -3 -3 -3 -3 -4 -4 -4 -3 -2 -2 -2 -2 -2 -2 -3 -3 -3 -3 -3 -3 -3 -3 -2 -2 -2 -2 -2 -1 -1 -0 1 2 3 4 5 6 7 7
6 5 5 4 2 -0 -1 -2 -2 -2 -2 -3 -3 -3 -3 -3 -3 -3 -3 -2 -1 -1 -1 -1 -1 -1 -1 -2 -2 -2 -2 -2 -2 -1 -1 -0 -0 0 1 3 5 7 8 8 9 9 9 9 10
6 6 5 4 3 1 0 -0 -1 -1 -2 -2 -3 -3 -3 -3 -3 -3 -2 -2 -0 0 1 1 1 1 1 0 0 0 -0 -0 -0 0 1 2 3 5 7 9 10 11 12 12 11 11 10 10 11
6 6 5 5 4 2 1 1 0 -1 -2 -2 -2 -2 -2 -2 -3 -3 -2 -2 -0 1 2 3 3 3 3 3 2 2 2 1 2 3 5 7 9 10 12 13 13 13 13 13 13 12 12 11 11
5 5 5 5 4 3 2 2 1 -0 -1 -2 -2 -2 -2 -2 -2 -2 -2 -1 0 2 4 6 6 6 6 5 5 4 4 4 5 7 9 11 13 13 14 14 14 14 14 14 14 13 13 12 12
5 4 4 4 4 4 3 3 2 0 -0 -0 -1 -2 -2 -2 -1 -1 -1 0 2 4 6 7 7 7 7 7 7 7 8 8 9 11 12 13 14 14 14 14 14 14 14 14 14 14 13 13 13
4 3 3 3 3 3 2 2 2 1 0 1 0 -1 -1 -1 -0 1 1 2 4 6 8 8 8 8 9 9 9 9 10 10 11 12 12 13 13 14 14 14 14 14 14 14 15 14 14 14 14
2 2 1 1 1 1 1 1 1 0 0 1 1 -0 -1 -0 1 2 3 4 5 7 8 9 9 9 9 10 10 10 10 11 11 12 12 12 13 14 14 14 14 15 15 15 15 15 15 15 14
-0 -0 -0 -0 -0 -0 -0 -0 0 0 0 1 1 0 -0 0 2 3 4 5 6 7 8 9 9 9 10 10 10 11 11 11 12 12 12 12 13 14 14 15 15 15 15 16 16 16 16 15 15
-1 -1 -1 -1 -1 -0 -0 -0 0 0 0 1 1 0 0 1 2 4 5 6 7 8 9 9 9 9 10 10 11 11 11 12 12 13 13 13 13 14 15 15 16 16 16 16 16 16 16 16 15
-1 -1 -1 -1 -1 -1 -0 -0 0 0 0 1 1 0 1 2 3 5 6 7 7 8 9 9 9 10 10 10 11 11 11 12 13 13 13 13 13 14 15 16 16 16 16 16 16 16 16 15 15
-1 -1 -2 -2 -2 -2 -1 -1 -0 0 1 1 1 1 1 2 4 5 6 7 8 8 9 9 10 10 10 11 11 12 12 13 14 14 14 14 13 14 15 16 16 16 16 15 15 15 15 15 15
-1 -1 -2 -2 -2 -2 -2 -1 -1 0 1 1 1 1 2 3 4 5 6 7 8 9 9 9 10 10 11 11 12 13 13 14 15 15 15 14 13 14 15 15 16 16 16 15 15 15 15 15 15